Location: Sobotiste
(48.7170°N, 17.4000°E)
Time: 10:33:00
(UTC+02:00)

CAS-6 - Pass Details

Date: 19 March 2026
Orbit: 601 x 618 km, 97.8° (Epoch: 18 April)

Event Time Altitude Azimuth Distance (km) Brightness Sun altitude
Exits shadow 20:05:05 11° 40° (NE) 1,873 ? -20.6°
Drops below altitude 10° 20:05:39 10° 32° (NNE) 1,958 ? -20.7°
Sets 20:09:01 0° 4° (N) 2,871 ? -21.2°
